Location: Cahas Mountain Overlook
(37.0833°N, 80.1000°W)
Time: 23:12:19
(UTC-05:00)

Vanguard 1 - Pass Details

Date: 01 October 2022
Orbit: 650 x 3831 km, 34.2° (Epoch: 03 December)

Event Time Altitude Azimuth Distance (km) Brightness Sun altitude
Rises 20:30:06 0° 279° (W) 4,681 15.3 -18.0°
Reaches altitude 10° 20:34:04 10° 272° (W) 3,222 13.9 -18.8°
Maximum altitude 20:40:35 36° 209° (SSW) 1,360 10.9 -20.1°
Enters shadow 20:43:09 22° 159° (SSE) 1,616 10.9 -20.6°
